Location: Davayat
(45.9471°N, 3.1105°E)
Time: 16:46:16
(UTC+00:00)

CZ-4C R/B - Pass Details

Date: 01 December 2020
Orbit: 407 x 489 km, 97.7° (Epoch: 18 January)

Event Time Altitude Azimuth Distance (km) Brightness Sun altitude
Rises 17:06:44 0° 8° (N) 2,580 6.5 -10.6°
Reaches altitude 10° 17:08:51 10° 3° (N) 1,693 5.6 -11.0°
Maximum altitude 17:12:24 52° 287° (WNW) 615 3.9 -11.5°
Drops below altitude 10° 17:15:55 10° 210° (SSW) 1,666 6.5 -12.1°
Sets 17:17:59 0° 206° (SSW) 2,533 7.4 -12.4°
